[[{"header":{"parameterUnit":"m.s-1","parameterCategory":1,"la1":30.2991,"la2":30.254,"lo1":-89.0895,"lo2":-89.0444,"dy":0.0017,"dx":0.0017,"nx":28,"ny":28,"refTime":"2024-12-17T03:00:00:Z","depth":0,"parameterNumber":2,"parameterNumberName":"U-component_of_WINDS"},"data":[0,0,0,0,0,0,0,0,0,0,0,0,0,0,0,0,0,0,0,0,0,0,0,0,0,0,0,0,0,0,0,0,0,0,0,0,0,0,0,0,0,0,0,0,0,0,0,0,0,0,0,0,0,0,0,0,0,0,-0.8565,-0.8564,0,-0.8527,-0.8526,-0.8526,-0.8482,-0.8481,-0.8481,-0.848,-0.8442,-0.8442,-0.8441,0,0,0,0,0,0,0,0,0,0,0,0,0,-0.8601,-0.86,-0.8565,-0.8564,-0.8564,-0.8527,-0.8526,-0.8526,-0.8482,-0.8481,-0.848,-0.848,-0.8442,-0.8442,-0.8441,0,0,0,0,0,0,0,0,0,0,0,0,0,-0.8576,-0.86,-0.8565,-0.8538,-0.8535,-0.8527,-0.8526,-0.8526,-0.8482,-0.8481,-0.848,-0.8479,-0.8442,-0.8442,-0.8441,-0.8458,0,0,-0.844,-0.8439,0,0,0,0,0,0,0,0,-0.8578,-0.8575,-0.8542,-0.8539,-0.8536,-0.8508,-0.8525,-0.8503,-0.8482,-0.8502,-0.848,-0.8479,-0.8465,-0.8463,-0.8458,-0.8456,-0.8454,-0.844,-0.8439,-0.8439,-0.8439,0,0,0,0,0,0,0,-0.8579,-0.8576,-0.855,-0.8542,-0.8538,-0.8528,-0.8523,-0.8521,-0.849,-0.85,-0.8497,-0.8493,-0.8463,-0.8458,-0.8456,-0.8454,-0.844,-0.8439,-0.8439,-0.8438,-0.8465,-0.8466,0,0,0,0,0,0,-0.8585,-0.8578,-0.8551,-0.8549,-0.8555,-0.8528,-0.8523,-0.8518,-0.849,-0.8484,-0.8494,-0.8491,-0.846,-0.8457,-0.8455,-0.8473,-0.8439,-0.8438,-0.8438,-0.8464,-0.8465,-0.8466,0,0,0,0,0,0,-0.8586,-0.8583,-0.8553,-0.8562,-0.8558,-0.8528,-0.8523,-0.8518,-0.8513,-0.8485,-0.8479,-0.8495,-0.8459,-0.8456,-0.8457,-0.8471,-0.8438,-0.8438,-0.8462,-0.8464,-0.8465,-0.851,0,0,0,0,0,0,-0.8587,-0.8584,-0.859,-0.8563,-0.8557,-0.8556,-0.8524,-0.8518,-0.8512,-0.8508,-0.8484,-0.8479,-0.8458,-0.8459,-0.8457,-0.847,-0.8437,-0.8461,-0.8463,-0.8465,-0.8507,-0.8513,-0.8518,0,0,0,0,0,-0.8589,-0.8604,-0.859,-0.8587,-0.8564,-0.8557,-0.8553,-0.8529,-0.8513,-0.8519,-0.8501,-0.848,-0.847,-0.8459,-0.8457,-0.847,-0.846,-0.8463,-0.8465,-0.8505,-0.8512,-0.8517,0,0,0,0,0,0,-0.8633,-0.86,-0.8584,-0.8591,-0.8577,-0.8549,-0.8556,-0.8536,-0.8527,-0.8524,-0.8493,-0.8488,-0.8494,-0.8482,-0.8471,-0.8485,-0.8462,-0.8464,-0.8493,-0.8499,-0.8504,-0.8508,-0.8437,0,0,0,0,0,-0.8643,-0.864,-0.8611,-0.862,-0.8613,-0.8586,-0.8582,-0.8564,-0.8548,-0.8542,-0.8524,-0.851,-0.8504,-0.8501,-0.8493,-0.8504,-0.8499,-0.8512,-0.8517,-0.8522,-0.8525,-0.8531,-0.8537,-0.8474,-0.8474,-0.8474,0,0,-0.8665,-0.8647,-0.8646,-0.8628,-0.8615,-0.8613,-0.8581,-0.858,-0.8578,-0.8542,-0.8543,-0.8529,-0.8512,-0.8519,-0.8521,-0.8509,-0.8541,-0.8525,-0.8529,-0.8529,-0.8534,-0.854,-0.8545,-0.8475,-0.8475,-0.8475,0,0,-0.8704,-0.8689,-0.8695,-0.8683,-0.8663,-0.8645,-0.8646,-0.8621,-0.8611,-0.8611,-0.8584,-0.8581,-0.8571,-0.856,-0.8553,-0.8587,-0.8568,-0.8586,-0.8614,-0.862,-0.8625,-0.863,-0.8643,-0.8649,-0.8588,-0.8588,-0.8588,0,-0.8734,-0.8729,-0.8701,-0.8701,-0.8695,-0.8661,-0.8667,-0.8657,-0.8636,-0.8632,-0.8619,-0.8605,-0.8591,-0.8595,-0.8604,-0.8599,-0.86,-0.8589,-0.8627,-0.8631,-0.8634,-0.8647,-0.8652,-0.859,-0.859,-0.859,-0.859,0,-0.8768,-0.8765,-0.8772,-0.8753,-0.8746,-0.875,-0.8722,-0.8719,-0.8702,-0.8685,-0.8686,-0.8667,-0.8656,-0.8655,-0.8638,-0.8657,-0.8651,-0.8632,-0.8609,-0.8643,-0.8655,-0.866,-0.8594,-0.8593,-0.8592,-0.8592,0,0,-0.8835,-0.88,-0.8803,-0.8794,-0.877,-0.8768,-0.8769,-0.8758,-0.8757,-0.8743,-0.8745,-0.8736,-0.8719,-0.8711,-0.8692,-0.8698,-0.8728,-0.8678,-0.8678,-0.869,-0.875,-0.8766,-0.8772,-0.8714,-0.8715,-0.8715,-0.8752,0,-0.8871,-0.8873,-0.8847,-0.8856,-0.8854,-0.8821,-0.8823,-0.8808,-0.8792,-0.8788,-0.877,-0.8766,-0.8742,-0.8738,-0.8741,-0.8724,-0.874,-0.872,-0.8717,-0.8717,-0.8724,-0.8777,-0.8794,-0.8829,-0.8756,-0.8757,-0.8757,0,-0.8914,-0.8903,-0.8912,-0.8888,-0.8886,-0.8888,-0.8875,-0.8871,-0.8854,-0.8842,-0.8833,-0.8811,-0.8812,-0.8789,-0.879,-0.8777,-0.8774,-0.8765,-0.8765,-0.8766,-0.8741,-0.8781,-0.884,-0.8846,-0.8764,-0.8763,-0.8763,0,-0.8965,-0.8952,-0.8956,-0.8949,-0.892,-0.8923,-0.8911,-0.8893,-0.8888,-0.8877,-0.8873,-0.8863,-0.8857,-0.885,-0.8826,-0.8811,-0.883,-0.8805,-0.8822,-0.8823,-0.8829,-0.883,-0.8891,-0.8824,-0.8824,-0.8824,-0.8823,0,-0.901,-0.9017,-0.8979,-0.8981,-0.8988,-0.8958,-0.8966,-0.8951,-0.8935,-0.8935,-0.8905,-0.8905,-0.8872,-0.8869,-0.885,-0.8855,-0.8852,-0.8843,-0.8839,-0.8847,-0.8849,-0.8846,-0.8844,-0.8825,-0.8825,-0.8824,-0.8824,0,-0.9069,-0.9043,-0.9045,-0.9018,-0.9011,-0.9018,-0.8994,-0.8996,-0.8977,-0.8977,-0.8975,-0.8947,-0.8941,-0.8916,-0.8904,-0.8891,-0.8903,-0.8892,-0.8909,-0.8907,-0.8926,-0.8925,-0.8989,-0.8997,-0.8924,-0.8924,-0.8925,0,-0.91,-0.9105,-0.9077,-0.9075,-0.9064,-0.906,-0.9055,-0.9025,-0.9021,-0.9001,-0.9006,-0.8997,-0.899,-0.8983,-0.8961,-0.8953,-0.8943,-0.8965,-0.8941,-0.895,-0.8945,-0.8946,-0.8947,-0.8972,-0.8972,-0.8973,-0.8974,0,-0.9159,-0.9146,-0.9139,-0.9128,-0.9122,-0.9112,-0.91,-0.9099,-0.9066,-0.9063,-0.9057,-0.9051,-0.9039,-0.9032,-0.9019,-0.9007,-0.8986,-0.8981,-0.8985,-0.8995,-0.9006,-0.9002,-0.8926,-0.8981,-0.898,-0.8979,-0.8979,-0.8979,-0.9206,-0.9209,-0.9191,-0.9184,-0.9172,-0.9161,-0.9162,-0.9143,-0.9137,-0.9125,-0.9107,-0.9104,-0.9087,-0.9068,-0.9058,-0.9055,-0.9042,-0.9048,-0.9049,-0.9052,-0.9057,-0.9004,-0.9052,-0.9052,-0.9052,-0.9051,-0.9051,0,-0.9266,-0.9252,-0.9246,-0.923,-0.9225,-0.9203,-0.9189,-0.9186,-0.9184,-0.9169,-0.9162,-0.9155,-0.9148,-0.9125,-0.9116,-0.9118,-0.9108,-0.9117,-0.9118,-0.9116,-0.9067,-0.9066,-0.9126,-0.9126,-0.9126,-0.9126,-0.9125,-0.9125,-0.9296,-0.93,-0.9285,-0.9283,-0.9269,-0.9265,-0.9259,-0.9249,-0.9238,-0.9231,-0.9225,-0.921,-0.9193,-0.9182,-0.9175,-0.9168,-0.9167,-0.918,-0.917,-0.9126,-0.9119,-0.9112,-0.9111,-0.9179,-0.9179,-0.9219,-0.922,-0.922]},{"header":{"parameterUnit":"m.s-1","parameterCategory":1,"la1":30.2991,"la2":30.254,"lo1":-89.0895,"lo2":-89.0444,"dy":0.0017,"dx":0.0017,"nx":28,"ny":28,"refTime":"2024-12-17T03:00:00:Z","depth":0,"parameterNumber":3,"parameterNumberName":"V-component_of_WINDS"},"data":[0,0,0,0,0,0,0,0,0,0,0,0,0,0,0,0,0,0,0,0,0,0,0,0,0,0,0,0,0,0,0,0,0,0,0,0,0,0,0,0,0,0,0,0,0,0,0,0,0,0,0,0,0,0,0,0,0,0,-1.3361,-1.3362,0,-1.341,-1.341,-1.3411,-1.3392,-1.3391,-1.339,-1.3389,-1.3437,-1.3439,-1.3441,0,0,0,0,0,0,0,0,0,0,0,0,0,-1.325,-1.3252,-1.3361,-1.3362,-1.3362,-1.341,-1.341,-1.3411,-1.3393,-1.3391,-1.339,-1.3389,-1.3436,-1.3439,-1.3441,0,0,0,0,0,0,0,0,0,0,0,0,0,-1.3298,-1.3253,-1.3361,-1.3359,-1.3359,-1.3409,-1.341,-1.3411,-1.3393,-1.3391,-1.339,-1.3388,-1.3435,-1.3438,-1.3442,-1.3496,0,0,-1.3452,-1.3454,0,0,0,0,0,0,0,0,-1.3296,-1.3302,-1.3359,-1.3359,-1.336,-1.3393,-1.3388,-1.3439,-1.3393,-1.338,-1.3389,-1.3387,-1.3423,-1.3428,-1.344,-1.3498,-1.35,-1.3452,-1.3455,-1.3456,-1.3457,0,0,0,0,0,0,0,-1.3292,-1.33,-1.338,-1.3359,-1.336,-1.3355,-1.336,-1.3398,-1.341,-1.3381,-1.338,-1.3386,-1.3423,-1.3437,-1.3441,-1.3501,-1.3452,-1.3455,-1.3458,-1.3459,-1.3606,-1.3608,0,0,0,0,0,0,-1.3289,-1.3298,-1.3379,-1.3382,-1.3323,-1.3358,-1.3364,-1.3384,-1.341,-1.3412,-1.3387,-1.3385,-1.3432,-1.3437,-1.3443,-1.3509,-1.3456,-1.3459,-1.3461,-1.3604,-1.3606,-1.3608,0,0,0,0,0,0,-1.3287,-1.3297,-1.3377,-1.3339,-1.3349,-1.3362,-1.3385,-1.3386,-1.34,-1.3415,-1.3417,-1.3399,-1.3431,-1.3438,-1.3483,-1.351,-1.3461,-1.3464,-1.3602,-1.3605,-1.3607,-1.3641,0,0,0,0,0,0,-1.3284,-1.3296,-1.3317,-1.334,-1.3351,-1.3417,-1.3387,-1.3388,-1.3406,-1.3403,-1.3426,-1.3429,-1.343,-1.3478,-1.3487,-1.3514,-1.3467,-1.36,-1.3603,-1.3606,-1.3638,-1.3645,-1.3651,0,0,0,0,0,-1.328,-1.3324,-1.3319,-1.3328,-1.3378,-1.3419,-1.3425,-1.3427,-1.3408,-1.343,-1.3439,-1.3428,-1.3506,-1.3483,-1.3492,-1.3521,-1.3598,-1.3602,-1.3606,-1.3635,-1.3643,-1.3651,0,0,0,0,0,0,-1.3304,-1.3327,-1.3321,-1.3374,-1.3395,-1.3416,-1.3443,-1.3436,-1.3461,-1.3457,-1.3457,-1.3463,-1.3509,-1.3519,-1.3494,-1.3575,-1.3549,-1.3555,-1.3567,-1.3576,-1.3582,-1.3579,-1.3469,0,0,0,0,0,-1.3315,-1.3347,-1.3365,-1.341,-1.3421,-1.343,-1.3447,-1.3447,-1.3468,-1.3476,-1.3489,-1.3509,-1.3538,-1.3557,-1.3584,-1.3638,-1.3643,-1.3663,-1.3669,-1.3675,-1.3681,-1.3711,-1.372,-1.3622,-1.3622,-1.3622,0,0,-1.3339,-1.3356,-1.3376,-1.3415,-1.3431,-1.3463,-1.3437,-1.3472,-1.3496,-1.3481,-1.3525,-1.3535,-1.3557,-1.3607,-1.363,-1.3617,-1.3708,-1.368,-1.3684,-1.3687,-1.3716,-1.3725,-1.3733,-1.3625,-1.3624,-1.3624,0,0,-1.34,-1.3415,-1.3455,-1.3472,-1.3496,-1.3502,-1.3511,-1.3533,-1.354,-1.3584,-1.3573,-1.3601,-1.3651,-1.3667,-1.3682,-1.3749,-1.3739,-1.3757,-1.3792,-1.3821,-1.3829,-1.3836,-1.3861,-1.3869,-1.3763,-1.3763,-1.3763,0,-1.3426,-1.3475,-1.3476,-1.3513,-1.353,-1.3519,-1.3559,-1.3574,-1.3606,-1.3618,-1.3603,-1.3666,-1.368,-1.3734,-1.3751,-1.3763,-1.3774,-1.3755,-1.3828,-1.3835,-1.3841,-1.3865,-1.3874,-1.3765,-1.3765,-1.3764,-1.3764,0,-1.3507,-1.3541,-1.357,-1.3603,-1.3623,-1.3661,-1.3667,-1.3688,-1.3685,-1.3692,-1.3737,-1.3754,-1.3785,-1.3797,-1.3794,-1.3851,-1.3842,-1.3828,-1.3801,-1.3853,-1.3875,-1.3884,-1.3768,-1.3767,-1.3766,-1.3766,0,0,-1.3586,-1.3618,-1.3629,-1.3643,-1.3669,-1.3695,-1.3732,-1.3763,-1.3781,-1.3803,-1.3834,-1.3876,-1.3863,-1.388,-1.3879,-1.3904,-1.3957,-1.3887,-1.3887,-1.39,-1.4022,-1.4034,-1.4044,-1.3951,-1.3952,-1.3954,-1.402,0,-1.3649,-1.3716,-1.3717,-1.3778,-1.381,-1.3799,-1.3831,-1.385,-1.3857,-1.3884,-1.3891,-1.3922,-1.3902,-1.3912,-1.3937,-1.3946,-1.3982,-1.3941,-1.398,-1.3981,-1.3977,-1.4056,-1.4069,-1.4131,-1.4029,-1.403,-1.4031,0,-1.3733,-1.3759,-1.3823,-1.3845,-1.3858,-1.3887,-1.3916,-1.3942,-1.3963,-1.3967,-1.3986,-1.398,-1.4018,-1.3989,-1.404,-1.4012,-1.4028,-1.4035,-1.4037,-1.4042,-1.4011,-1.4064,-1.4151,-1.4161,-1.4045,-1.4044,-1.4043,0,-1.3786,-1.3836,-1.3881,-1.3894,-1.392,-1.3941,-1.3953,-1.3972,-1.3991,-1.4015,-1.4027,-1.4055,-1.4071,-1.4092,-1.4095,-1.4073,-1.4147,-1.4118,-1.4151,-1.4151,-1.4168,-1.4167,-1.426,-1.4176,-1.4175,-1.4175,-1.4175,0,-1.3858,-1.3898,-1.3905,-1.3934,-1.3978,-1.3978,-1.4022,-1.4031,-1.4049,-1.4078,-1.4069,-1.4096,-1.4097,-1.4125,-1.4127,-1.417,-1.4176,-1.418,-1.418,-1.4182,-1.4182,-1.4194,-1.419,-1.4178,-1.4177,-1.4177,-1.4176,0,-1.3925,-1.3931,-1.398,-1.4001,-1.4007,-1.4039,-1.4056,-1.4083,-1.4088,-1.4126,-1.4134,-1.4144,-1.4176,-1.418,-1.4217,-1.4218,-1.427,-1.4265,-1.4264,-1.4264,-1.4297,-1.4294,-1.4402,-1.4416,-1.4321,-1.4322,-1.4323,0,-1.3971,-1.4002,-1.4026,-1.4046,-1.4059,-1.409,-1.4109,-1.411,-1.413,-1.4157,-1.418,-1.4211,-1.4237,-1.4289,-1.4299,-1.4327,-1.4323,-1.4359,-1.4328,-1.4329,-1.4326,-1.4325,-1.4328,-1.4366,-1.4367,-1.4367,-1.4368,0,-1.4054,-1.4055,-1.4084,-1.4114,-1.4137,-1.416,-1.4182,-1.4198,-1.4202,-1.4225,-1.4258,-1.4278,-1.4317,-1.4348,-1.4376,-1.4387,-1.4379,-1.4378,-1.4387,-1.439,-1.4389,-1.4391,-1.4282,-1.4376,-1.4375,-1.4374,-1.4374,-1.4374,-1.4113,-1.414,-1.4162,-1.4194,-1.421,-1.4231,-1.4257,-1.4266,-1.4295,-1.4327,-1.4325,-1.4362,-1.4382,-1.4419,-1.4432,-1.4461,-1.4449,-1.4462,-1.4466,-1.4469,-1.4474,-1.4383,-1.4465,-1.4465,-1.4465,-1.4465,-1.4465,0,-1.4196,-1.4209,-1.4239,-1.427,-1.4295,-1.4285,-1.4308,-1.433,-1.4363,-1.4382,-1.4408,-1.4446,-1.4477,-1.4489,-1.4518,-1.4539,-1.4536,-1.4547,-1.4546,-1.4549,-1.4482,-1.4471,-1.4549,-1.4549,-1.4549,-1.4549,-1.4549,-1.4549,-1.4243,-1.4288,-1.4292,-1.4346,-1.4358,-1.4396,-1.441,-1.4429,-1.4444,-1.4488,-1.4514,-1.4522,-1.4538,-1.4569,-1.4596,-1.4599,-1.4611,-1.4624,-1.4625,-1.4562,-1.4554,-1.4546,-1.4536,-1.4626,-1.4626,-1.469,-1.4691,-1.4692]}]]